Location: Newark
(48.1500°N, 13.1167°E)
Time: 13:58:39
(UTC+00:00)

Tiangong - Pass Details

Date: 04 October 2021
Orbit: 382 x 384 km, 41.5° (Epoch: 20 October)

Event Time Altitude Azimuth Distance (km) Brightness Sun altitude
Exits shadow 04:03:14 15° 224° (SW) 1,121 3.0 -12.1°
Maximum altitude 04:04:30 19° 193° (SSW) 984 2.9 -11.9°
Drops below altitude 10° 04:06:49 10° 146° (SE) 1,394 4.3 -11.5°
Sets 04:09:15 0° 127° (SE) 2,244 5.7 -11.1°
